{"data":{"norad_id":62096,"intl_designator":"2024-220J","name":"STARLINK-11303 [DTC]","alt_names":[],"object_type":"PAYLOAD","status":"ACTIVE","operator":null,"country":"US","launch_date":"2024-11-25","launch_site_code":"AFETR","launch_vehicle":null,"mission":null,"orbit_class":"UNKNOWN","rcs_meters":null,"size_class":null,"mass_kg":null,"dimensions":null,"purposes":["comms"],"wikipedia_slug":null,"has_3d_model":false,"image_url":null,"decayed_at":null,"tle_current":{"epoch":"2026-09-20T07:19:23.834208Z","epoch_age_seconds":198281,"freshness":"STALE","line1":"1 62096U 24220J   26263.30513697  .00327950  00000+0  24759-2 0  9990","line2":"2 62096  42.9995 309.7705 0000939 244.9447 115.1323 15.70683441105662","mean_motion":15.70683441,"eccentricity":9.39e-5,"inclination_deg":42.9995,"raan_deg":309.7705,"arg_perigee_deg":244.9447,"mean_anomaly_deg":115.1323,"bstar":0.0024759,"rev_number":10566,"period_min":91.6798358225,"perigee_km":356.31014968736,"apogee_km":357.57499763129,"semimajor_km":6735.0795736593,"source":"CELESTRAK","updated_at":"2026-09-22T09:00:49.497589Z"}}}